Terminal Aerodrome Forecast
Issued by NWS

Home | Current Version | Previous Version | Text Only | Print | Product List | Glossary On
Versions: 1 2 3 4 5 6 7 8 9 10 11 12 13 14 15
000
FTAK31 PAJN 222300
TAFAWG
TAF
PAWG 222338Z 2300/2324 11004KT P6SM FEW002 FEW030 SCT050
     FM231000 10012KT P6SM -RA SCT025 BKN050 OVC070
     FM231500 10010G20KT P6SM -RA BKN025 OVC050
     FM232200 09015G25KT P6SM VCSH BKN035 OVC060
      AMD LTD TO CLD VIS AND WIND 2306/2315=

USA.gov is the U.S. government's official web portal to all federal, state and local government web resources and services.